McAlester, OK

8:42 PM CDT on March 29, 2017 (GMT -0500)
McAlester Regional

Weather History for KMLC - December, 2012

Change the Weather History Date:

Monday, December 3, 2012

  Actual Average Record
Temperature  
Mean Temperature 70 °F -  
Max Temperature 77 °F 55 °F 78 °F (1970)
Min Temperature 64 °F 31 °F 19 °F (2006)
Cooling Degree Days 6    
Growing Degree Days 20 (Base 50)    
Moisture  
Dew Point 57 °F    
Average Humidity 65    
Maximum Humidity 84    
Minimum Humidity 45    
Precipitation  
Precipitation 0.00 in - - ()
Sea Level Pressure  
Sea Level Pressure 29.92 in    
Wind  
Wind Speed 13 mph (South)    
Max Wind Speed 18 mph    
Max Gust Speed 34 mph    
Visibility 10 miles    
Events      
Averages and records for this station are not official NWS values.
T = Trace of Precipitation, MM = Missing Value Source: NWS Daily Summary

Daily Weather History Graph

Daily Weather History Graph

Search for Another Location

Airport or City:

Trip Planner

Search our weather history database for the weather conditions in past years. The results will help you decide how hot, cold, wet, or windy it might be!

Date:

Astronomy

Dec. 03, 2012 Rise Set
Actual Time 7:14 AM CST 5:11 PM CST
Civil Twilight 6:46 AM CST 5:39 PM CST
Nautical Twilight 6:15 AM CST 6:10 PM CST
Astronomical Twilight 5:44 AM CST 6:41 PM CST
Moon 9:52 PM CST (12/3) 10:43 AM CST (12/3)
Length of Visible Light 10h 52m
Length of Day
9h 56m
Waning Gibbous, 78% of the Moon is Illuminated
Dec 3
Waning Gibbous
Dec 6
Last Quarter
Dec 13
New
Dec 19
First Quarter
Dec 28
Full

Hourly Weather History & Observations

Time (CST) Temp. Dew Point Humidity Pressure Visibility Wind Dir Wind Speed Gust Speed Precip Events Conditions
12:53 AM 68.0 °F 57.0 °F 68% 29.95 in 10.0 mi South 10.4 mph - N/A   Scattered Clouds
1:53 AM 68.0 °F 57.9 °F 70% 29.95 in 10.0 mi South 15.0 mph 25.3 mph N/A   Clear
2:53 AM 66.9 °F 57.9 °F 73% 29.95 in 10.0 mi South 11.5 mph 21.9 mph N/A   Overcast
3:53 AM 64.9 °F 57.9 °F 78% 29.95 in 10.0 mi South 11.5 mph 20.7 mph N/A   Mostly Cloudy
4:53 AM 64.9 °F 57.9 °F 78% 29.93 in 10.0 mi South 16.1 mph 24.2 mph N/A   Partly Cloudy
5:53 AM 64.0 °F 59.0 °F 84% 29.93 in 10.0 mi South 15.0 mph 26.5 mph N/A   Partly Cloudy
6:53 AM 64.0 °F 57.9 °F 80% 29.93 in 10.0 mi South 11.5 mph 26.5 mph N/A   Clear
7:53 AM 64.9 °F 57.9 °F 78% 29.95 in 10.0 mi South 11.5 mph 24.2 mph N/A   Partly Cloudy
8:53 AM 66.0 °F 57.9 °F 75% 29.96 in 10.0 mi South 16.1 mph 26.5 mph N/A   Partly Cloudy
9:53 AM 69.1 °F 57.9 °F 68% 29.96 in 10.0 mi South 18.4 mph 26.5 mph N/A   Mostly Cloudy
10:53 AM 70.0 °F 57.0 °F 63% 29.96 in 10.0 mi SSW 17.3 mph 28.8 mph N/A   Overcast
11:45 AM 73.4 °F 57.2 °F 57% 29.95 in 10.0 mi South 18.4 mph 32.2 mph N/A   Mostly Cloudy
11:53 AM 73.0 °F 57.0 °F 57% 29.92 in 10.0 mi South 17.3 mph 34.5 mph N/A   Mostly Cloudy
12:53 PM 75.9 °F 55.9 °F 50% 29.89 in 10.0 mi SSW 18.4 mph 29.9 mph N/A   Clear
1:53 PM 75.9 °F 55.9 °F 50% 29.85 in 10.0 mi South 18.4 mph 33.4 mph N/A   Partly Cloudy
2:53 PM 77.0 °F 55.9 °F 48% 29.84 in 10.0 mi South 17.3 mph 29.9 mph N/A   Clear
3:53 PM 77.0 °F 54.0 °F 45% 29.83 in 10.0 mi South 17.3 mph 28.8 mph N/A   Mostly Cloudy
4:53 PM 75.9 °F 54.0 °F 46% 29.85 in 10.0 mi South 15.0 mph 26.5 mph N/A   Partly Cloudy
5:53 PM 73.0 °F 55.0 °F 53% 29.85 in 10.0 mi South 10.4 mph 17.3 mph N/A   Scattered Clouds
6:53 PM 71.1 °F 55.0 °F 57% 29.89 in 10.0 mi South 4.6 mph - N/A   Clear
7:53 PM 71.1 °F 55.9 °F 59% 29.92 in 10.0 mi South 6.9 mph - N/A   Mostly Cloudy
8:53 PM 69.1 °F 57.9 °F 68% 29.93 in 10.0 mi SSE 6.9 mph - N/A   Partly Cloudy
9:53 PM 68.0 °F 60.1 °F 76% 29.94 in 10.0 mi SSE 8.1 mph - N/A   Clear
10:53 PM 68.0 °F 59.0 °F 73% 29.94 in 10.0 mi SSE 8.1 mph - N/A   Scattered Clouds
11:53 PM 68.0 °F 57.2 °F 68% 29.96 in 10.0 mi South 9.2 mph - N/A   Partly Cloudy